Time,TemperatureF,DewpointF,PressureIn,WindDirection,WindDirectionDegrees,WindSpeedMPH,WindSpeedGustMPH,Humidity,HourlyPrecipIn,Conditions,Clouds,dailyrainin,SolarRadiationWatts/m^2,SoftwareType,DateUTC
2016-02-13 00:07:00,55.8,55.6,-100.00,SE,140,0.0,0.0,99,0.00,,,0.00,0.00,Weather logger V1.0,2016-02-13 08:07:00,
2016-02-13 00:14:00,55.8,55.6,-100.00,SE,138,0.0,0.0,99,0.00,,,0.00,0.00,Weather logger V1.0,2016-02-13 08:14:00,
2016-02-13 00:37:00,55.8,55.6,-100.00,SE,140,0.0,0.0,99,0.00,,,0.00,0.00,Weather logger V1.0,2016-02-13 08:37:00,
2016-02-13 00:43:00,55.8,55.6,-100.00,SE,130,0.0,0.0,99,0.00,,,0.00,0.00,Weather logger V1.0,2016-02-13 08:43:00,
2016-02-13 00:48:00,55.8,55.6,29.89,SSE,156,0.0,0.0,99,0.00,,,0.00,0.00,Weather logger V1.0,2016-02-13 08:48:00,
2016-02-13 00:54:00,55.6,55.4,29.89,SSE,162,0.0,0.0,99,0.00,,,0.00,0.00,Weather logger V1.0,2016-02-13 08:54:00,
2016-02-13 00:59:00,55.8,55.6,29.88,SE,132,0.0,0.0,99,0.00,,,0.00,0.00,Weather logger V1.0,2016-02-13 08:59:00,
2016-02-13 01:04:00,55.6,55.4,29.87,SE,138,0.0,0.0,99,0.00,,,0.00,0.00,Weather logger V1.0,2016-02-13 09:04:00,
2016-02-13 01:10:00,55.6,55.4,29.88,SE,133,0.4,2.5,99,0.00,,,0.00,0.00,Weather logger V1.0,2016-02-13 09:10:00,
2016-02-13 01:15:00,55.6,55.4,29.88,SE,140,0.0,0.0,99,0.00,,,0.00,0.00,Weather logger V1.0,2016-02-13 09:15:00,
2016-02-13 01:20:00,55.6,54.9,29.88,SE,138,0.0,0.0,97,0.00,,,0.00,0.00,Weather logger V1.0,2016-02-13 09:20:00,
2016-02-13 01:26:00,55.4,54.7,29.88,ESE,119,0.0,0.0,97,0.00,,,0.00,0.00,Weather logger V1.0,2016-02-13 09:26:00,
2016-02-13 01:31:00,55.4,54.7,29.88,ESE,122,0.0,0.0,97,0.00,,,0.00,0.00,Weather logger V1.0,2016-02-13 09:31:00,
2016-02-13 01:37:00,55.2,54.5,29.88,SE,129,0.0,0.0,97,0.00,,,0.00,0.00,Weather logger V1.0,2016-02-13 09:37:00,
2016-02-13 01:54:00,55.2,54.5,-100.00,ESE,119,0.0,0.0,97,0.00,,,0.00,0.00,Weather logger V1.0,2016-02-13 09:54:00,
2016-02-13 02:17:00,55.2,55.0,-100.00,SE,127,0.0,0.0,99,0.00,,,0.00,0.00,Weather logger V1.0,2016-02-13 10:17:00,
2016-02-13 02:38:00,55.2,54.5,-100.00,SE,131,0.0,0.0,97,0.00,,,0.00,0.00,Weather logger V1.0,2016-02-13 10:38:00,
2016-02-13 02:44:00,55.2,54.5,29.88,SE,141,0.0,0.0,97,0.00,,,0.00,0.00,Weather logger V1.0,2016-02-13 10:44:00,
2016-02-13 02:54:00,55.0,54.3,29.88,SE,143,0.0,0.0,97,0.00,,,0.00,0.00,Weather logger V1.0,2016-02-13 10:54:00,
2016-02-13 02:59:00,54.9,54.1,29.89,SE,143,0.0,0.0,97,0.00,,,0.00,0.00,Weather logger V1.0,2016-02-13 10:59:00,
2016-02-13 03:04:00,54.7,54.0,29.89,South,182,0.0,0.0,97,0.00,,,0.00,0.00,Weather logger V1.0,2016-02-13 11:04:00,
2016-02-13 03:10:00,54.5,53.8,29.88,SSE,149,0.0,0.0,97,0.00,,,0.00,0.00,Weather logger V1.0,2016-02-13 11:10:00,
2016-02-13 03:15:00,54.3,53.6,29.88,SSE,149,0.0,0.0,97,0.00,,,0.00,0.00,Weather logger V1.0,2016-02-13 11:15:00,
2016-02-13 03:21:00,54.3,53.6,29.88,SSE,149,0.0,0.0,97,0.00,,,0.00,0.00,Weather logger V1.0,2016-02-13 11:21:00,
2016-02-13 03:26:00,54.1,53.4,29.88,SSE,149,0.0,0.0,97,0.00,,,0.00,0.00,Weather logger V1.0,2016-02-13 11:26:00,
2016-02-13 03:31:00,54.1,53.6,29.88,SE,146,0.0,0.0,98,0.00,,,0.00,0.00,Weather logger V1.0,2016-02-13 11:31:00,
2016-02-13 03:36:00,54.0,53.4,29.88,SE,143,0.0,0.0,98,0.00,,,0.00,0.00,Weather logger V1.0,2016-02-13 11:36:00,
2016-02-13 03:42:00,54.0,53.4,29.88,SE,139,0.0,0.0,98,0.00,,,0.00,0.00,Weather logger V1.0,2016-02-13 11:42:00,
2016-02-13 03:47:00,53.8,53.2,29.88,SE,143,0.0,0.0,98,0.00,,,0.00,0.00,Weather logger V1.0,2016-02-13 11:47:00,
2016-02-13 03:58:00,53.8,53.2,-100.00,SE,143,0.0,0.0,98,0.00,,,0.00,0.00,Weather logger V1.0,2016-02-13 11:58:00,
2016-02-13 04:03:00,53.6,53.1,29.89,SE,145,0.0,0.0,98,0.00,,,0.00,0.00,Weather logger V1.0,2016-02-13 12:03:00,
2016-02-13 04:09:00,53.6,53.1,29.89,SE,145,0.0,0.0,98,0.00,,,0.00,0.00,Weather logger V1.0,2016-02-13 12:09:00,
2016-02-13 04:14:00,53.6,52.9,29.89,SE,145,0.0,0.0,97,0.00,,,0.00,0.00,Weather logger V1.0,2016-02-13 12:14:00,
2016-02-13 04:19:00,53.6,52.9,29.89,SE,145,0.0,0.0,97,0.00,,,0.00,0.00,Weather logger V1.0,2016-02-13 12:19:00,
2016-02-13 04:24:00,53.6,52.9,29.89,SE,140,0.0,0.0,97,0.00,,,0.00,0.00,Weather logger V1.0,2016-02-13 12:24:00,
2016-02-13 04:30:00,53.6,52.9,29.89,SE,140,0.0,0.0,97,0.00,,,0.00,0.00,Weather logger V1.0,2016-02-13 12:30:00,
2016-02-13 04:36:00,53.6,52.9,29.89,SE,144,0.0,0.0,97,0.00,,,0.00,0.00,Weather logger V1.0,2016-02-13 12:36:00,
2016-02-13 04:41:00,53.6,52.9,29.89,SE,145,0.0,0.0,97,0.00,,,0.00,0.00,Weather logger V1.0,2016-02-13 12:41:00,
2016-02-13 05:03:00,53.8,53.1,-100.00,SE,145,0.0,0.0,97,0.00,,,0.00,0.00,Weather logger V1.0,2016-02-13 13:03:00,
2016-02-13 05:08:00,54.0,53.2,29.90,SSE,147,0.0,0.0,97,0.00,,,0.00,0.00,Weather logger V1.0,2016-02-13 13:08:00,
2016-02-13 05:13:00,54.1,53.4,29.90,SE,137,0.0,0.0,97,0.00,,,0.00,0.00,Weather logger V1.0,2016-02-13 13:13:00,
2016-02-13 05:18:00,54.1,53.4,29.89,SE,130,0.0,0.0,97,0.00,,,0.00,0.00,Weather logger V1.0,2016-02-13 13:18:00,
2016-02-13 05:23:00,54.3,53.6,29.90,ESE,113,0.0,0.0,97,0.00,,,0.00,0.00,Weather logger V1.0,2016-02-13 13:23:00,
2016-02-13 05:29:00,54.1,53.6,29.89,SE,143,0.0,0.0,98,0.00,,,0.00,0.00,Weather logger V1.0,2016-02-13 13:29:00,
2016-02-13 05:53:00,54.1,53.6,-100.00,SE,146,0.0,0.0,98,0.00,,,0.00,0.00,Weather logger V1.0,2016-02-13 13:53:00,
2016-02-13 05:59:00,54.1,53.6,-100.00,SE,142,0.0,0.0,98,0.00,,,0.00,0.00,Weather logger V1.0,2016-02-13 13:59:00,
2016-02-13 06:06:00,54.0,53.4,-100.00,SE,143,0.0,0.0,98,0.00,,,0.00,0.00,Weather logger V1.0,2016-02-13 14:06:00,
2016-02-13 06:11:00,53.8,53.6,29.90,SE,144,0.0,0.0,99,0.00,,,0.00,0.00,Weather logger V1.0,2016-02-13 14:11:00,
2016-02-13 06:16:00,53.4,53.2,29.89,SSE,147,0.0,0.0,99,0.00,,,0.00,0.00,Weather logger V1.0,2016-02-13 14:16:00,
2016-02-13 06:21:00,52.9,52.7,29.90,SSE,147,0.0,0.0,99,0.00,,,0.00,0.00,Weather logger V1.0,2016-02-13 14:21:00,
2016-02-13 06:47:00,52.7,52.5,-100.00,SSE,147,0.0,0.0,99,0.00,,,0.00,0.00,Weather logger V1.0,2016-02-13 14:47:00,
2016-02-13 06:52:00,52.3,52.2,29.91,SSE,147,0.0,0.0,99,0.00,,,0.00,0.00,Weather logger V1.0,2016-02-13 14:52:00,
2016-02-13 06:58:00,52.3,52.2,29.92,SSE,147,0.0,0.0,99,0.00,,,0.00,0.00,Weather logger V1.0,2016-02-13 14:58:00,
2016-02-13 07:04:00,52.2,52.0,29.92,SSE,147,0.0,0.0,99,0.00,,,0.00,1.50,Weather logger V1.0,2016-02-13 15:04:00,
2016-02-13 07:10:00,51.8,51.6,29.92,SE,146,0.0,0.0,99,0.00,,,0.00,5.63,Weather logger V1.0,2016-02-13 15:10:00,
2016-02-13 07:16:00,51.6,51.4,29.92,SE,146,0.0,0.0,99,0.00,,,0.00,9.32,Weather logger V1.0,2016-02-13 15:16:00,
2016-02-13 07:21:00,51.4,51.3,29.92,SE,146,0.0,0.0,99,0.00,,,0.00,13.48,Weather logger V1.0,2016-02-13 15:21:00,
2016-02-13 07:27:00,51.3,51.1,29.92,SE,145,0.0,0.0,99,0.00,,,0.00,18.96,Weather logger V1.0,2016-02-13 15:27:00,
2016-02-13 07:32:00,51.1,50.9,29.92,SSE,147,0.0,0.0,99,0.00,,,0.00,24.12,Weather logger V1.0,2016-02-13 15:32:00,
2016-02-13 07:38:00,51.1,50.9,29.92,SSE,149,0.0,0.0,99,0.00,,,0.00,27.61,Weather logger V1.0,2016-02-13 15:38:00,
2016-02-13 07:44:00,50.9,50.7,-100.00,SSE,148,0.0,0.0,99,0.00,,,0.00,30.48,Weather logger V1.0,2016-02-13 15:44:00,
2016-02-13 07:50:00,50.9,50.7,-100.00,SSE,148,0.0,0.0,99,0.00,,,0.00,57.09,Weather logger V1.0,2016-02-13 15:50:00,
2016-02-13 07:56:00,51.1,50.4,-100.00,SSE,148,0.0,0.0,97,0.00,,,0.00,71.78,Weather logger V1.0,2016-02-13 15:56:00,
2016-02-13 08:02:00,51.1,50.9,-100.00,SSE,149,0.0,0.0,99,0.00,,,0.00,81.63,Weather logger V1.0,2016-02-13 16:02:00,
2016-02-13 08:08:00,51.3,50.5,-100.00,South,184,0.0,0.0,97,0.00,,,0.00,86.42,Weather logger V1.0,2016-02-13 16:08:00,
2016-02-13 08:21:00,51.4,50.7,-100.00,South,176,0.0,0.0,97,0.00,,,0.00,96.37,Weather logger V1.0,2016-02-13 16:21:00,
2016-02-13 08:27:00,51.4,51.3,-100.00,SSE,168,0.0,0.0,99,0.00,,,0.00,100.17,Weather logger V1.0,2016-02-13 16:27:00,
2016-02-13 08:34:00,51.6,51.4,-100.00,SSE,165,0.0,0.0,99,0.00,,,0.00,104.43,Weather logger V1.0,2016-02-13 16:34:00,
2016-02-13 08:40:00,51.6,51.4,-100.00,South,169,0.0,0.0,99,0.00,,,0.00,108.65,Weather logger V1.0,2016-02-13 16:40:00,
2016-02-13 08:45:00,52.0,51.8,29.95,SE,127,0.0,0.0,99,0.00,,,0.00,112.81,Weather logger V1.0,2016-02-13 16:45:00,
2016-02-13 08:50:00,52.5,52.3,29.95,SSE,157,0.0,0.0,99,0.00,,,0.00,115.15,Weather logger V1.0,2016-02-13 16:50:00,
2016-02-13 08:55:00,53.1,52.9,29.95,SSE,165,0.0,0.0,99,0.00,,,0.00,118.78,Weather logger V1.0,2016-02-13 16:55:00,
2016-02-13 09:01:00,53.6,52.9,29.95,SE,138,0.0,0.0,97,0.00,,,0.00,121.26,Weather logger V1.0,2016-02-13 17:01:00,
2016-02-13 09:06:00,54.5,52.5,29.97,South,177,0.0,0.0,93,0.00,,,0.00,124.03,Weather logger V1.0,2016-02-13 17:06:00,
2016-02-13 09:12:00,55.4,53.1,29.96,SSW,208,0.0,0.0,92,0.00,,,0.00,125.95,Weather logger V1.0,2016-02-13 17:12:00,
2016-02-13 09:30:00,55.8,52.9,-100.00,South,191,0.0,0.0,90,0.00,,,0.00,128.72,Weather logger V1.0,2016-02-13 17:30:00,
2016-02-13 09:35:00,56.5,52.0,29.97,SSE,152,0.0,0.0,85,0.00,,,0.00,140.73,Weather logger V1.0,2016-02-13 17:35:00,
2016-02-13 09:41:00,57.4,52.7,29.96,South,170,0.0,0.0,84,0.00,,,0.00,145.91,Weather logger V1.0,2016-02-13 17:41:00,
2016-02-13 09:46:00,57.9,53.1,29.96,West,270,0.0,0.0,84,0.00,,,0.00,152.84,Weather logger V1.0,2016-02-13 17:46:00,
2016-02-13 09:52:00,59.7,54.5,29.97,South,187,0.0,0.0,83,0.00,,,0.00,160.62,Weather logger V1.0,2016-02-13 17:52:00,
2016-02-13 09:57:00,61.2,55.4,29.96,SSW,205,0.0,0.0,81,0.00,,,0.00,168.82,Weather logger V1.0,2016-02-13 17:57:00,
2016-02-13 10:02:00,61.5,55.4,29.97,SSW,197,0.0,0.0,80,0.00,,,0.00,175.28,Weather logger V1.0,2016-02-13 18:02:00,
2016-02-13 10:08:00,61.7,55.8,29.97,SSE,159,0.0,0.0,81,0.00,,,0.00,183.81,Weather logger V1.0,2016-02-13 18:08:00,
2016-02-13 10:14:00,62.1,55.6,29.97,NW,312,0.2,2.5,79,0.00,,,0.00,193.68,Weather logger V1.0,2016-02-13 18:14:00,
2016-02-13 10:19:00,62.2,55.4,29.97,South,172,0.0,0.0,78,0.00,,,0.00,203.20,Weather logger V1.0,2016-02-13 18:19:00,
2016-02-13 10:24:00,62.4,55.9,-100.00,South,172,0.0,0.0,79,0.00,,,0.00,213.39,Weather logger V1.0,2016-02-13 18:24:00,
2016-02-13 10:30:00,62.8,55.9,29.97,SSW,210,0.0,0.0,78,0.00,,,0.00,226.68,Weather logger V1.0,2016-02-13 18:30:00,
2016-02-13 10:35:00,63.0,55.0,29.97,SSW,204,0.0,0.0,75,0.00,,,0.00,236.94,Weather logger V1.0,2016-02-13 18:35:00,
2016-02-13 10:51:00,63.1,55.9,-100.00,SSW,194,0.9,2.5,77,0.00,,,0.00,242.27,Weather logger V1.0,2016-02-13 18:51:00,
2016-02-13 10:57:00,63.3,55.6,29.95,West,260,1.1,2.5,76,0.00,,,0.00,153.09,Weather logger V1.0,2016-02-13 18:57:00,
2016-02-13 11:03:00,63.5,55.0,29.95,South,182,0.0,0.0,74,0.00,,,0.00,155.00,Weather logger V1.0,2016-02-13 19:03:00,
2016-02-13 11:27:00,63.5,55.0,-100.00,SW,219,2.0,2.5,74,0.00,,,0.00,154.79,Weather logger V1.0,2016-02-13 19:27:00,
2016-02-13 11:33:00,63.7,54.1,-100.00,SSE,161,0.0,0.0,71,0.00,,,0.00,284.04,Weather logger V1.0,2016-02-13 19:33:00,
2016-02-13 11:38:00,63.9,54.0,-100.00,SSE,151,0.0,0.0,70,0.00,,,0.00,398.93,Weather logger V1.0,2016-02-13 19:38:00,
2016-02-13 11:49:00,65.1,54.0,29.95,SSE,162,0.0,0.0,67,0.00,,,0.00,431.57,Weather logger V1.0,2016-02-13 19:49:00,
2016-02-13 11:54:00,65.8,54.1,29.95,South,187,0.0,0.0,66,0.00,,,0.00,446.03,Weather logger V1.0,2016-02-13 19:54:00,
2016-02-13 12:00:00,66.2,53.8,29.95,SW,222,0.0,0.0,64,0.00,,,0.00,465.03,Weather logger V1.0,2016-02-13 20:00:00,
2016-02-13 12:10:00,66.7,53.4,-100.00,SSW,197,0.0,0.0,62,0.00,,,0.00,494.37,Weather logger V1.0,2016-02-13 20:10:00,
2016-02-13 12:17:00,67.1,54.1,29.95,South,179,0.0,0.0,63,0.00,,,0.00,514.44,Weather logger V1.0,2016-02-13 20:17:00,
2016-02-13 12:28:00,67.5,55.4,29.94,South,181,0.4,2.5,65,0.00,,,0.00,535.18,Weather logger V1.0,2016-02-13 20:28:00,
2016-02-13 12:33:00,67.8,54.9,29.94,SW,227,1.1,2.5,63,0.00,,,0.00,544.20,Weather logger V1.0,2016-02-13 20:33:00,
2016-02-13 12:39:00,67.8,54.9,-100.00,WSW,245,2.5,4.9,63,0.00,,,0.00,553.08,Weather logger V1.0,2016-02-13 20:39:00,
2016-02-13 12:51:00,68.2,52.9,-100.00,SSW,193,0.0,0.0,58,0.00,,,0.00,567.18,Weather logger V1.0,2016-02-13 20:51:00,
2016-02-13 12:57:00,68.7,52.5,29.93,South,171,0.0,0.0,56,0.00,,,0.00,571.33,Weather logger V1.0,2016-02-13 20:57:00,
2016-02-13 13:02:00,68.9,51.6,29.92,South,174,0.4,2.5,54,0.00,,,0.00,573.32,Weather logger V1.0,2016-02-13 21:02:00,
2016-02-13 13:07:00,69.1,55.9,29.92,SW,231,1.1,2.5,63,0.00,,,0.00,574.35,Weather logger V1.0,2016-02-13 21:07:00,
2016-02-13 13:13:00,69.1,56.8,29.92,SE,134,1.3,2.5,65,0.00,,,0.00,577.34,Weather logger V1.0,2016-02-13 21:13:00,
2016-02-13 13:18:00,69.1,57.4,29.92,South,190,4.0,4.9,66,0.00,,,0.00,574.49,Weather logger V1.0,2016-02-13 21:18:00,
2016-02-13 13:23:00,69.1,57.7,29.92,SSW,193,0.4,2.5,67,0.00,,,0.00,576.52,Weather logger V1.0,2016-02-13 21:23:00,
2016-02-13 13:28:00,69.1,58.1,29.92,South,190,0.2,2.5,68,0.00,,,0.00,578.47,Weather logger V1.0,2016-02-13 21:28:00,
2016-02-13 13:33:00,68.9,56.7,29.91,SSE,153,0.2,2.5,65,0.00,,,0.00,579.40,Weather logger V1.0,2016-02-13 21:33:00,
2016-02-13 13:39:00,68.5,56.8,29.91,SSE,156,1.1,2.5,66,0.00,,,0.00,578.90,Weather logger V1.0,2016-02-13 21:39:00,
2016-02-13 13:44:00,68.4,56.1,29.91,South,187,2.0,2.5,65,0.00,,,0.00,582.73,Weather logger V1.0,2016-02-13 21:44:00,
2016-02-13 13:50:00,68.4,56.1,29.91,ESE,123,1.8,4.9,65,0.00,,,0.00,583.52,Weather logger V1.0,2016-02-13 21:50:00,
2016-02-13 13:55:00,68.2,55.9,29.91,SE,135,0.4,2.5,65,0.00,,,0.00,582.38,Weather logger V1.0,2016-02-13 21:55:00,
2016-02-13 14:00:00,68.2,55.6,29.91,SE,125,0.0,0.0,64,0.00,,,0.00,580.21,Weather logger V1.0,2016-02-13 22:00:00,
2016-02-13 14:06:00,68.2,55.9,29.92,SE,131,1.3,4.9,65,0.00,,,0.00,578.40,Weather logger V1.0,2016-02-13 22:06:00,
2016-02-13 14:11:00,68.2,57.2,29.92,South,169,2.7,4.9,68,0.00,,,0.00,572.43,Weather logger V1.0,2016-02-13 22:11:00,
2016-02-13 14:16:00,68.2,56.8,29.91,SSE,165,2.5,4.9,67,0.00,,,0.00,568.31,Weather logger V1.0,2016-02-13 22:16:00,
2016-02-13 14:21:00,68.0,57.0,29.91,SW,235,2.5,4.9,68,0.00,,,0.00,566.82,Weather logger V1.0,2016-02-13 22:21:00,
2016-02-13 14:27:00,68.0,55.8,29.91,WSW,237,4.2,4.9,65,0.00,,,0.00,562.42,Weather logger V1.0,2016-02-13 22:27:00,
2016-02-13 14:38:00,68.0,55.0,29.91,South,190,0.2,2.5,63,0.00,,,0.00,554.85,Weather logger V1.0,2016-02-13 22:38:00,